Location: DeLan Observatory
(46.9670°N, 70.5500°W)
Time: 22:06:14
(UTC-05:00)

ISS - Visible Passes

Search period start: 13 November 2019 00:00
Search period end: 23 November 2019 00:00
Orbit: 412 x 421 km, 51.6° (Epoch: 14 November)

Date Brightness Start Highest point End Pass type
(mag) Time Alt. Az. Time Alt. Az. Time Alt. Az.
13 Nov -1.1 04:27:21 14° S 04:27:21 14° S 04:27:57 10° SSE visible
21 Nov -1.7 17:53:05 10° S 17:54:35 17° SSE 17:54:35 17° SSE visible
22 Nov -1.5 17:05:52 10° SSE 17:07:19 12° SE 17:08:21 11° ESE visible
22 Nov -1.2 18:40:11 10° SW 18:41:16 19° SW 18:41:16 19° SW visible
